St. Petersburg Airport, FL

1:16 PM EDT on March 25, 2017 (GMT -0400)
Saint Petersburg-Clearwater International

Weather History for KPIE - November, 2013

Change the Weather History Date:

Monday, November 4, 2013

  Actual Average Record
Temperature  
Mean Temperature 70 °F -  
Max Temperature 78 °F 79 °F 89 °F (2015)
Min Temperature 62 °F 65 °F 45 °F (1966)
Cooling Degree Days 5    
Growing Degree Days 20 (Base 50)    
Moisture  
Dew Point 58 °F    
Average Humidity 67    
Maximum Humidity 81    
Minimum Humidity 54    
Precipitation  
Precipitation 0.00 in - - ()
Sea Level Pressure  
Sea Level Pressure 30.14 in    
Wind  
Wind Speed 14 mph (NE)    
Max Wind Speed 17 mph    
Max Gust Speed 26 mph    
Visibility 10 miles    
Events      
Averages and records for this station are not official NWS values.
T = Trace of Precipitation, MM = Missing Value Source: NWS Daily Summary

Daily Weather History Graph

Daily Weather History Graph

Search for Another Location

Airport or City:

Trip Planner

Search our weather history database for the weather conditions in past years. The results will help you decide how hot, cold, wet, or windy it might be!

Date:

Astronomy

Nov. 04, 2013 Rise Set
Actual Time 6:44 AM EST 5:44 PM EST
Civil Twilight 6:19 AM EST 6:08 PM EST
Nautical Twilight 5:51 AM EST 6:36 PM EST
Astronomical Twilight 5:24 AM EST 7:03 PM EST
Moon 7:48 AM EST (11/4) 6:53 PM EST (11/4)
Length of Visible Light 11h 48m
Length of Day
11h 00m
New Moon, 2% of the Moon is Illuminated
Nov 4
New Moon
Nov 10
First Quarter
Nov 17
Full
Nov 25
Last Quarter
Dec 2
New

Hourly Weather History & Observations

Time (EST) Temp. Dew Point Humidity Pressure Visibility Wind Dir Wind Speed Gust Speed Precip Events Conditions
12:53 AM 63.0 °F 53.1 °F 70% 30.12 in 10.0 mi NE 15.0 mph 21.9 mph N/A   Clear
1:53 AM 63.0 °F 54.0 °F 72% 30.12 in 10.0 mi NE 16.1 mph 23.0 mph N/A   Clear
2:53 AM 62.1 °F 54.0 °F 75% 30.12 in 10.0 mi NNE 10.4 mph - N/A   Clear
3:53 AM 63.0 °F 55.0 °F 75% 30.12 in 10.0 mi NE 11.5 mph - N/A   Mostly Cloudy
4:53 AM 63.0 °F 55.0 °F 75% 30.12 in 10.0 mi NNE 15.0 mph 23.0 mph N/A   Mostly Cloudy
5:53 AM 64.0 °F 55.0 °F 73% 30.13 in 10.0 mi NNE 15.0 mph 20.7 mph N/A   Scattered Clouds
6:53 AM 64.9 °F 55.9 °F 73% 30.14 in 10.0 mi NNE 15.0 mph 21.9 mph N/A   Mostly Cloudy
7:53 AM 66.0 °F 55.9 °F 70% 30.15 in 10.0 mi NE 12.7 mph 19.6 mph N/A   Overcast
8:53 AM 68.0 °F 57.0 °F 68% 30.16 in 10.0 mi NE 11.5 mph 20.7 mph N/A   Mostly Cloudy
9:53 AM 70.0 °F 57.9 °F 65% 30.17 in - NE 12.7 mph 19.6 mph N/A   Overcast
10:53 AM 73.0 °F 59.0 °F 61% 30.17 in 10.0 mi ENE 11.5 mph 21.9 mph N/A   Mostly Cloudy
11:53 AM 75.0 °F 59.0 °F 57% 30.15 in 10.0 mi ENE 15.0 mph 23.0 mph N/A   Overcast
12:53 PM 75.9 °F 59.0 °F 56% 30.13 in 10.0 mi ENE 17.3 mph 25.3 mph N/A   Overcast
1:53 PM 78.1 °F 60.1 °F 54% 30.11 in 10.0 mi ENE 13.8 mph 20.7 mph N/A   Scattered Clouds
2:53 PM 75.9 °F 57.9 °F 54% 30.11 in 10.0 mi ENE 15.0 mph 24.2 mph N/A   Overcast
3:53 PM 77.0 °F 59.0 °F 54% 30.12 in 10.0 mi ENE 12.7 mph 18.4 mph N/A   Overcast
4:53 PM 75.9 °F 57.9 °F 54% 30.12 in 10.0 mi ENE 15.0 mph 21.9 mph N/A   Overcast
5:53 PM 73.9 °F 59.0 °F 59% 30.13 in 10.0 mi ENE 17.3 mph 26.5 mph N/A   Overcast
6:53 PM 73.9 °F 60.1 °F 62% 30.14 in 10.0 mi NE 10.4 mph - N/A   Overcast
7:53 PM 73.0 °F 61.0 °F 66% 30.16 in 10.0 mi NE 12.7 mph 21.9 mph N/A   Overcast
8:53 PM 71.1 °F 62.1 °F 73% 30.17 in 10.0 mi NNE 11.5 mph - N/A   Clear
9:53 PM 71.1 °F 63.0 °F 75% 30.17 in 10.0 mi NE 13.8 mph 21.9 mph N/A   Clear
10:53 PM 71.1 °F 63.0 °F 75% 30.16 in 10.0 mi NE 17.3 mph 25.3 mph N/A   Scattered Clouds
11:53 PM 70.0 °F 64.0 °F 81% 30.17 in 10.0 mi NE 16.1 mph - N/A   Overcast